EXS7JN EGCC-LEAL

Flight info

Callsign EXS7JN
Flight time N/A
Altitude 37000
Route SANBA N859 HON UN859 SOPIL DCT BALAN DCT LMG DCT PIMQO DCT AGN DCT ANETO DCT POSSY DCT XIMPE DCT RIMES DCT SAURA DCT TATOS N860 PLANA DCT VLC
Aircraft B738/M-SDE2E3FGHIRWXY/LB1

Departure

Time N/A
Airport Manchester Airport (EGCC)

Arrival

Time 2026-05-01 08:38
Airport Alicante-Elche Miguel Hernández Airport (LEAL)
Time Latitude Longitude Altitude Speed Heading
2026-05-01 07:23 45.59718 1.08209 37233 ft 449 kts 172°
2026-05-01 07:24 45.50496 1.10557 37237 ft 448 kts 172°
2026-05-01 07:24 45.44395 1.12104 37231 ft 448 kts 172°
2026-05-01 07:25 45.38260 1.13659 37240 ft 447 kts 172°
2026-05-01 07:25 45.32134 1.15209 37235 ft 447 kts 172°
2026-05-01 07:26 45.26016 1.16754 37234 ft 446 kts 172°
2026-05-01 07:26 45.19945 1.18283 37235 ft 446 kts 172°
2026-05-01 07:27 45.13816 1.18843 37227 ft 440 kts 188°
2026-05-01 07:27 45.07885 1.17381 37236 ft 437 kts 193°
2026-05-01 07:28 45.01914 1.15762 37227 ft 437 kts 193°
2026-05-01 07:28 44.96235 1.14266 37215 ft 437 kts 192°
2026-05-01 07:29 44.90260 1.12729 37225 ft 437 kts 192°
2026-05-01 07:29 44.84367 1.11228 37226 ft 436 kts 192°
2026-05-01 07:30 44.78386 1.09709 37232 ft 436 kts 192°
2026-05-01 07:30 44.72590 1.08239 37225 ft 437 kts 192°
2026-05-01 07:31 44.66638 1.06731 37214 ft 437 kts 192°
2026-05-01 07:32 44.51680 1.02957 37213 ft 437 kts 192°
2026-05-01 07:33 44.42702 1.00701 37211 ft 437 kts 192°
2026-05-01 07:33 44.33805 0.98472 37214 ft 436 kts 192°
2026-05-01 07:34 44.24957 0.96263 37210 ft 436 kts 192°
2026-05-01 07:35 44.18981 0.94774 37209 ft 435 kts 191°
2026-05-01 07:35 44.13020 0.93292 37211 ft 435 kts 191°
2026-05-01 07:36 44.07105 0.91825 37213 ft 435 kts 191°
2026-05-01 07:36 44.01149 0.90350 37203 ft 434 kts 191°
2026-05-01 07:37 43.92234 0.88147 37203 ft 433 kts 191°
2026-05-01 07:37 43.86338 0.86674 37210 ft 433 kts 192°
2026-05-01 07:38 43.80438 0.85090 37216 ft 433 kts 192°
2026-05-01 07:39 43.71580 0.82690 37203 ft 432 kts 192°
2026-05-01 07:39 43.62741 0.80325 37210 ft 431 kts 192°
2026-05-01 07:40 43.57014 0.78800 37207 ft 430 kts 192°
2026-05-01 07:40 43.51139 0.77240 37208 ft 430 kts 192°
2026-05-01 07:41 43.45270 0.75683 37214 ft 430 kts 192°
2026-05-01 07:42 43.36492 0.73360 37212 ft 430 kts 191°
2026-05-01 07:42 43.30613 0.71808 37206 ft 430 kts 191°
2026-05-01 07:43 43.24743 0.70261 37200 ft 431 kts 191°
2026-05-01 07:43 43.15918 0.67942 37196 ft 431 kts 191°
2026-05-01 07:44 43.04175 0.64867 37207 ft 431 kts 191°
2026-05-01 07:45 42.98286 0.63329 37211 ft 431 kts 192°
2026-05-01 07:45 42.92389 0.61792 37214 ft 431 kts 192°
2026-05-01 07:46 42.86498 0.60259 37216 ft 431 kts 192°
2026-05-01 07:47 42.77714 0.57979 37228 ft 430 kts 192°
2026-05-01 07:47 42.71848 0.56460 37234 ft 429 kts 192°
2026-05-01 07:48 42.63519 0.52228 37228 ft 427 kts 206°
2026-05-01 07:48 42.58208 0.48749 37243 ft 427 kts 206°
2026-05-01 07:49 42.50163 0.43569 37240 ft 426 kts 206°
2026-05-01 07:50 42.44800 0.40153 37238 ft 426 kts 206°
2026-05-01 07:50 42.36743 0.35037 37236 ft 426 kts 206°
2026-05-01 07:51 42.31407 0.31656 37225 ft 426 kts 206°
2026-05-01 07:52 42.23350 0.26561 37244 ft 426 kts 206°
2026-05-01 07:52 42.17972 0.23169 37221 ft 427 kts 206°
2026-05-01 07:53 42.09943 0.18115 37223 ft 426 kts 206°
2026-05-01 07:53 42.04382 0.15391 37218 ft 427 kts 192°
2026-05-01 07:55 41.89658 0.13214 37205 ft 427 kts 187°
2026-05-01 07:56 41.74923 0.11028 37205 ft 427 kts 188°
2026-05-01 07:57 41.66070 0.09707 37212 ft 427 kts 188°
2026-05-01 07:58 41.54306 0.07958 37208 ft 428 kts 188°
2026-05-01 07:59 41.42456 0.06204 37203 ft 429 kts 188°
2026-05-01 08:00 41.24686 0.03584 37201 ft 429 kts 188°
2026-05-01 08:01 41.12812 0.01842 37195 ft 429 kts 188°
2026-05-01 08:02 41.06913 0.00979 37199 ft 429 kts 188°
2026-05-01 08:03 40.95493 -0.00677 37193 ft 429 kts 188°
2026-05-01 08:03 40.86603 -0.01965 37198 ft 428 kts 188°
2026-05-01 08:04 40.74793 -0.03670 37198 ft 429 kts 188°
2026-05-01 08:05 40.65891 -0.04951 37201 ft 429 kts 188°
2026-05-01 08:06 40.57081 -0.06216 37177 ft 416 kts 188°
2026-05-01 08:06 40.51651 -0.07932 37204 ft 394 kts 199°
2026-05-01 08:07 40.46461 -0.10050 36860 ft 387 kts 198°
2026-05-01 08:07 40.41216 -0.12155 35255 ft 404 kts 198°
2026-05-01 08:08 40.38512 -0.13225 34741 ft 406 kts 198°
2026-05-01 08:08 40.33199 -0.15314 34133 ft 396 kts 198°
2026-05-01 08:09 40.27965 -0.17370 33384 ft 389 kts 198°
2026-05-01 08:09 40.25380 -0.18384 33027 ft 386 kts 198°
2026-05-01 08:09 40.22820 -0.19393 32700 ft 382 kts 198°
2026-05-01 08:10 40.17784 -0.21385 31982 ft 376 kts 198°
2026-05-01 08:10 40.12812 -0.23351 31272 ft 370 kts 198°
2026-05-01 08:11 40.07948 -0.25269 30603 ft 365 kts 198°
2026-05-01 08:11 40.03120 -0.27171 29874 ft 360 kts 198°
2026-05-01 08:12 39.98348 -0.29041 29024 ft 356 kts 198°
2026-05-01 08:12 39.95981 -0.29952 28669 ft 353 kts 197°
2026-05-01 08:12 39.91314 -0.31747 27962 ft 347 kts 197°
2026-05-01 08:13 39.89043 -0.32620 27623 ft 344 kts 197°
2026-05-01 08:13 39.86753 -0.33507 27259 ft 342 kts 197°
2026-05-01 08:13 39.82220 -0.35272 26581 ft 338 kts 197°
2026-05-01 08:14 39.79980 -0.36144 26241 ft 335 kts 197°
2026-05-01 08:14 39.77752 -0.37011 25911 ft 333 kts 197°
2026-05-01 08:14 39.75533 -0.37873 25579 ft 331 kts 197°
2026-05-01 08:14 39.73331 -0.38728 25248 ft 330 kts 197°
2026-05-01 08:15 39.71136 -0.39580 24916 ft 328 kts 197°
2026-05-01 08:15 39.66812 -0.41256 24276 ft 325 kts 197°
2026-05-01 08:15 39.64643 -0.42096 23956 ft 324 kts 197°
2026-05-01 08:16 39.62486 -0.42930 23586 ft 324 kts 197°
2026-05-01 08:16 39.60326 -0.43765 23227 ft 322 kts 197°
2026-05-01 08:16 39.58181 -0.44594 22879 ft 321 kts 197°
2026-05-01 08:16 39.56050 -0.45418 22539 ft 319 kts 197°
2026-05-01 08:17 39.53934 -0.46234 22216 ft 317 kts 197°
2026-05-01 08:17 39.51824 -0.47048 21895 ft 315 kts 197°
2026-05-01 08:17 39.49733 -0.47846 21576 ft 313 kts 195°
2026-05-01 08:17 39.47603 -0.48097 21216 ft 314 kts 174°
2026-05-01 08:18 39.45447 -0.47634 20867 ft 314 kts 171°
2026-05-01 08:18 39.41169 -0.46514 20218 ft 313 kts 169°
2026-05-01 08:19 39.36918 -0.45398 19595 ft 311 kts 170°
2026-05-01 08:19 39.34800 -0.44852 19274 ft 310 kts 170°
2026-05-01 08:19 39.32684 -0.44312 18978 ft 309 kts 170°
2026-05-01 08:19 39.30580 -0.43778 18674 ft 308 kts 170°
2026-05-01 08:20 39.28474 -0.43245 18347 ft 307 kts 170°
2026-05-01 08:20 39.26408 -0.42724 18001 ft 307 kts 170°
2026-05-01 08:20 39.24313 -0.42197 17674 ft 306 kts 170°
2026-05-01 08:20 39.22233 -0.41674 17369 ft 304 kts 170°
2026-05-01 08:21 39.20165 -0.41154 17048 ft 302 kts 170°
2026-05-01 08:21 39.18109 -0.40638 16743 ft 300 kts 170°
2026-05-01 08:21 39.16062 -0.40125 16442 ft 299 kts 170°
2026-05-01 08:21 39.14026 -0.39615 16141 ft 297 kts 170°
2026-05-01 08:22 39.11997 -0.39108 15837 ft 296 kts 171°
2026-05-01 08:22 39.09982 -0.38603 15550 ft 295 kts 171°
2026-05-01 08:22 39.07990 -0.38105 15266 ft 296 kts 171°
2026-05-01 08:22 39.05963 -0.37599 14955 ft 297 kts 171°
2026-05-01 08:23 39.03934 -0.37092 14647 ft 297 kts 171°
2026-05-01 08:23 39.01901 -0.36585 14334 ft 298 kts 171°
2026-05-01 08:23 38.99868 -0.36078 14024 ft 298 kts 171°
2026-05-01 08:23 38.97828 -0.35569 13687 ft 299 kts 171°
2026-05-01 08:24 38.95792 -0.35062 13359 ft 298 kts 171°
2026-05-01 08:24 38.93764 -0.34556 13040 ft 296 kts 170°
2026-05-01 08:24 38.91771 -0.34060 12725 ft 295 kts 170°
2026-05-01 08:24 38.89766 -0.33561 12439 ft 293 kts 170°
2026-05-01 08:25 38.87768 -0.33065 12128 ft 292 kts 171°
2026-05-01 08:25 38.85775 -0.32570 11782 ft 292 kts 171°
2026-05-01 08:25 38.83785 -0.32076 11478 ft 291 kts 170°
2026-05-01 08:25 38.81805 -0.31585 11185 ft 290 kts 171°
2026-05-01 08:26 38.79828 -0.31095 10888 ft 289 kts 171°
2026-05-01 08:26 38.77861 -0.30608 10594 ft 288 kts 171°
2026-05-01 08:26 38.75901 -0.30122 10338 ft 285 kts 171°
2026-05-01 08:26 38.73973 -0.29644 10085 ft 282 kts 171°
2026-05-01 08:27 38.72063 -0.29172 9734 ft 283 kts 170°
2026-05-01 08:27 38.70137 -0.28696 9436 ft 281 kts 170°
2026-05-01 08:27 38.68220 -0.28222 9147 ft 279 kts 170°
2026-05-01 08:27 38.66322 -0.27754 8865 ft 277 kts 169°
2026-05-01 08:28 38.64432 -0.27286 8577 ft 276 kts 169°
2026-05-01 08:28 38.62551 -0.26822 8301 ft 275 kts 169°
2026-05-01 08:28 38.60677 -0.26360 8027 ft 274 kts 169°
2026-05-01 08:28 38.58812 -0.25900 7739 ft 273 kts 169°
2026-05-01 08:29 38.56952 -0.25442 7472 ft 271 kts 169°
2026-05-01 08:29 38.55131 -0.24992 7199 ft 269 kts 168°
2026-05-01 08:29 38.53294 -0.24541 6940 ft 268 kts 168°
2026-05-01 08:29 38.51488 -0.24096 6817 ft 261 kts 168°
2026-05-01 08:30 38.49720 -0.23662 6692 ft 255 kts 168°
2026-05-01 08:30 38.47998 -0.23239 6572 ft 249 kts 168°
2026-05-01 08:30 38.46323 -0.22810 6392 ft 244 kts 163°
2026-05-01 08:30 38.44963 -0.21660 6333 ft 232 kts 128°
2026-05-01 08:31 38.43937 -0.20070 6091 ft 240 kts 141°
2026-05-01 08:31 38.42381 -0.19379 5844 ft 241 kts 182°
2026-05-01 08:31 38.40815 -0.19986 5607 ft 240 kts 206°
2026-05-01 08:31 38.39314 -0.20920 5339 ft 241 kts 205°
2026-05-01 08:32 38.37801 -0.21830 5085 ft 240 kts 204°
2026-05-01 08:32 38.36284 -0.22726 4837 ft 240 kts 204°
2026-05-01 08:32 38.34768 -0.23612 4580 ft 240 kts 204°
2026-05-01 08:32 38.33246 -0.24496 4327 ft 240 kts 204°
2026-05-01 08:33 38.31760 -0.25452 4077 ft 239 kts 217°
2026-05-01 08:33 38.30853 -0.27127 3826 ft 235 kts 257°
2026-05-01 08:33 38.30596 -0.29159 3635 ft 232 kts 262°
2026-05-01 08:33 38.30353 -0.31195 3388 ft 232 kts 262°
2026-05-01 08:34 38.30094 -0.33225 3146 ft 232 kts 261°
2026-05-01 08:34 38.29825 -0.35253 2904 ft 232 kts 261°
2026-05-01 08:34 38.29552 -0.37267 2687 ft 229 kts 261°
2026-05-01 08:34 38.29282 -0.39236 2438 ft 222 kts 261°
2026-05-01 08:35 38.29020 -0.41149 2136 ft 216 kts 261°
2026-05-01 08:35 38.28769 -0.42979 1840 ft 204 kts 261°
2026-05-01 08:35 38.28451 -0.44662 1532 ft 195 kts 243°
2026-05-01 08:35 38.27666 -0.45981 1322 ft 182 kts 231°
2026-05-01 08:36 38.27034 -0.47323 1140 ft 167 kts 258°
2026-05-01 08:36 38.27127 -0.48724 1058 ft 159 kts 282°
2026-05-01 08:36 38.27375 -0.50057 849 ft 150 kts 282°
2026-05-01 08:36 38.27576 -0.51320 584 ft 142 kts 278°
2026-05-01 08:37 38.27752 -0.52526 366 ft 137 kts 279°
2026-05-01 08:37 38.27915 -0.53704 206 ft 134 kts 278°
2026-05-01 08:37 38.28082 -0.54856 63 ft 129 kts 278°
2026-05-01 08:37 38.28211 -0.55778 99 ft 77 kts 279°
2026-05-01 08:38 38.28268 -0.56203 113 ft 35 kts 282°
2026-05-01 08:38 38.28312 -0.56496 117 ft 33 kts 279°
2026-05-01 08:38 38.28362 -0.56729 129 ft 22 kts 299°
2026-05-01 08:38 38.28457 -0.56882 133 ft 21 kts 311°
2026-05-01 08:39 38.28527 -0.56944 130 ft 11 kts
2026-05-01 08:39 38.28538 -0.56842 124 ft 17 kts 101°
2026-05-01 08:39 38.28512 -0.56658 116 ft 25 kts 100°
2026-05-01 08:39 38.28480 -0.56425 108 ft 28 kts 99°
2026-05-01 08:40 38.28426 -0.56036 96 ft 13 kts 100°
2026-05-01 08:40 38.28409 -0.55922 97 ft 13 kts 100°
2026-05-01 08:40 38.28395 -0.55810 97 ft 13 kts 99°
2026-05-01 08:41 38.28392 -0.55782 96 ft 0 kts 97°
2026-05-01 08:41 38.28393 -0.55770 96 ft 3 kts 77°
2026-05-01 08:41 38.28421 -0.55750 97 ft 6 kts
2026-05-01 08:41 38.28451 -0.55744 97 ft 0 kts
2026-05-01 08:42 38.28455 -0.55743 97 ft 3 kts 10°
2026-05-01 08:42 38.28456 -0.55742 96 ft 0 kts 10°